Year,Month,Day,Hour,Minute,Value (Times are PST for temperature in C)
2009,10,27,00,00,4.80
2009,10,27,00,01,4.80
2009,10,27,00,02,4.80
2009,10,27,00,03,4.70
2009,10,27,00,04,4.70
2009,10,27,00,05,4.60
2009,10,27,00,06,4.60
2009,10,27,00,07,4.50
2009,10,27,00,08,4.40
2009,10,27,00,09,4.40
2009,10,27,00,10,4.30
2009,10,27,00,11,4.20
2009,10,27,00,12,4.20
2009,10,27,00,13,4.20
2009,10,27,00,14,4.20
2009,10,27,00,15,4.10
2009,10,27,00,16,4.10
2009,10,27,00,17,4.00
2009,10,27,00,18,4.00
2009,10,27,00,19,3.90
2009,10,27,00,20,3.80
2009,10,27,00,21,3.80
2009,10,27,00,22,3.80
2009,10,27,00,23,3.70
2009,10,27,00,24,3.70
2009,10,27,00,25,3.60
2009,10,27,00,26,3.60
2009,10,27,00,27,3.60
2009,10,27,00,28,3.50
2009,10,27,00,29,3.50
2009,10,27,00,30,3.50
2009,10,27,00,31,3.40
2009,10,27,00,32,3.40
2009,10,27,00,33,3.40
2009,10,27,00,34,3.40
2009,10,27,00,35,3.30
2009,10,27,00,36,3.30
2009,10,27,00,37,3.30
2009,10,27,00,38,3.30
2009,10,27,00,39,3.30
2009,10,27,00,40,3.20
2009,10,27,00,41,3.20
2009,10,27,00,42,3.20
2009,10,27,00,43,3.20
2009,10,27,00,44,3.20
2009,10,27,00,45,3.20
2009,10,27,00,46,3.20
2009,10,27,00,47,3.20
2009,10,27,00,48,3.10
2009,10,27,00,49,3.10
2009,10,27,00,50,3.10
2009,10,27,00,51,3.10
2009,10,27,00,52,3.10
2009,10,27,00,53,3.00
2009,10,27,00,54,3.00
2009,10,27,00,55,3.00
2009,10,27,00,56,3.00
2009,10,27,00,57,2.90
2009,10,27,00,58,2.90
2009,10,27,00,59,2.90
2009,10,27,01,00,2.90
2009,10,27,01,01,2.90
2009,10,27,01,02,2.90
2009,10,27,01,03,2.90
2009,10,27,01,04,3.00
2009,10,27,01,05,3.00
2009,10,27,01,06,3.10
2009,10,27,01,07,3.10
2009,10,27,01,08,3.10
2009,10,27,01,09,3.20
2009,10,27,01,10,3.20
2009,10,27,01,11,3.30
2009,10,27,01,12,3.30
2009,10,27,01,13,3.30
2009,10,27,01,14,3.30
2009,10,27,01,15,3.30
2009,10,27,01,16,3.30
2009,10,27,01,17,3.30
2009,10,27,01,18,3.30
2009,10,27,01,19,3.30
2009,10,27,01,20,3.30
2009,10,27,01,21,3.30
2009,10,27,01,22,3.30
2009,10,27,01,23,3.30
2009,10,27,01,24,3.40
2009,10,27,01,25,3.40
2009,10,27,01,26,3.40
2009,10,27,01,27,3.40
2009,10,27,01,28,3.40
2009,10,27,01,29,3.50
2009,10,27,01,30,3.60
2009,10,27,01,31,3.70
2009,10,27,01,32,3.70
2009,10,27,01,33,3.80
2009,10,27,01,34,3.80
2009,10,27,01,35,3.90
2009,10,27,01,36,3.90
2009,10,27,01,37,4.00
2009,10,27,01,38,4.00
2009,10,27,01,39,4.10
2009,10,27,01,40,4.00
2009,10,27,01,41,3.90
2009,10,27,01,42,3.80
2009,10,27,01,43,3.80
2009,10,27,01,44,3.70
2009,10,27,01,45,3.70
2009,10,27,01,46,3.60
2009,10,27,01,47,3.50
2009,10,27,01,48,3.50
2009,10,27,01,49,3.40
2009,10,27,01,50,3.30
2009,10,27,01,51,3.30
2009,10,27,01,52,3.40
2009,10,27,01,53,3.40
2009,10,27,01,54,3.40
2009,10,27,01,55,3.40
2009,10,27,01,56,3.50
2009,10,27,01,57,3.50
2009,10,27,01,58,3.50
2009,10,27,01,59,3.50
2009,10,27,02,00,3.50
2009,10,27,02,01,3.40
2009,10,27,02,02,3.40
2009,10,27,02,03,3.30
2009,10,27,02,04,3.30
2009,10,27,02,05,3.20
2009,10,27,02,06,3.20
2009,10,27,02,07,3.20
2009,10,27,02,08,3.10
2009,10,27,02,09,3.10
2009,10,27,02,10,3.10
2009,10,27,02,11,3.00
2009,10,27,02,12,3.00
2009,10,27,02,13,3.00
2009,10,27,02,14,2.90
2009,10,27,02,15,2.90
2009,10,27,02,16,2.90
2009,10,27,02,17,2.90
2009,10,27,02,18,2.90
2009,10,27,02,19,2.90
2009,10,27,02,20,2.80
2009,10,27,02,21,2.80
2009,10,27,02,22,2.80
2009,10,27,02,23,2.80
2009,10,27,02,24,2.80
2009,10,27,02,26,2.80
2009,10,27,02,27,2.80
2009,10,27,02,28,2.80
2009,10,27,02,29,2.80
2009,10,27,02,30,2.80
2009,10,27,02,31,2.70
2009,10,27,02,32,2.70
2009,10,27,02,33,2.70
2009,10,27,02,34,2.70
2009,10,27,02,35,2.70
2009,10,27,02,36,2.70
2009,10,27,02,37,2.70
2009,10,27,02,38,2.60
2009,10,27,02,39,2.60
2009,10,27,02,40,2.60
2009,10,27,02,41,2.60
2009,10,27,02,42,2.60
2009,10,27,02,43,2.60
2009,10,27,02,44,2.60
2009,10,27,02,45,2.50
2009,10,27,02,46,2.50
2009,10,27,02,47,2.50
2009,10,27,02,48,2.50
2009,10,27,02,49,2.60
2009,10,27,02,50,2.60
2009,10,27,02,51,2.60
2009,10,27,02,52,2.60
2009,10,27,02,53,2.60
2009,10,27,02,54,2.60
2009,10,27,02,55,2.60
2009,10,27,02,56,2.60
2009,10,27,02,57,2.60
2009,10,27,02,58,2.60
2009,10,27,02,59,2.60
2009,10,27,03,00,2.60
2009,10,27,03,01,2.60
2009,10,27,03,02,2.60
2009,10,27,03,03,2.60
2009,10,27,03,04,2.60
2009,10,27,03,05,2.70
2009,10,27,03,06,2.70
2009,10,27,03,07,2.70
2009,10,27,03,08,2.70
2009,10,27,03,09,2.70
2009,10,27,03,10,2.70
2009,10,27,03,11,2.70
2009,10,27,03,12,2.80
2009,10,27,03,13,2.80
2009,10,27,03,14,2.80
2009,10,27,03,15,2.80
2009,10,27,03,16,2.80
2009,10,27,03,17,2.80
2009,10,27,03,18,2.80
2009,10,27,03,19,2.90
2009,10,27,03,20,2.90
2009,10,27,03,21,2.90
2009,10,27,03,22,2.90
2009,10,27,03,23,2.90
2009,10,27,03,24,2.90
2009,10,27,03,25,2.90
2009,10,27,03,26,2.90
2009,10,27,03,27,2.90
2009,10,27,03,28,2.80
2009,10,27,03,29,2.80
2009,10,27,03,30,2.70
2009,10,27,03,31,2.70
2009,10,27,03,32,2.70
2009,10,27,03,33,2.70
2009,10,27,03,34,2.70
2009,10,27,03,35,2.70
2009,10,27,03,36,2.70
2009,10,27,03,37,2.60
2009,10,27,03,38,2.60
2009,10,27,03,39,2.60
2009,10,27,03,40,2.60
2009,10,27,03,41,2.50
2009,10,27,03,42,2.50
2009,10,27,03,43,2.40
2009,10,27,03,44,2.40
2009,10,27,03,45,2.40
2009,10,27,03,46,2.40
2009,10,27,03,47,2.40
2009,10,27,03,48,2.40
2009,10,27,03,49,2.40
2009,10,27,03,50,2.40
2009,10,27,03,51,2.40
2009,10,27,03,52,2.40
2009,10,27,03,53,2.50
2009,10,27,03,54,2.60
2009,10,27,03,55,2.60
2009,10,27,03,56,2.60
2009,10,27,03,57,2.50
2009,10,27,03,58,2.50
2009,10,27,03,59,2.50
2009,10,27,04,00,2.40
2009,10,27,04,01,2.40
2009,10,27,04,02,2.40
2009,10,27,04,03,2.40
2009,10,27,04,04,2.30
2009,10,27,04,05,2.30
2009,10,27,04,06,2.30
2009,10,27,04,07,2.20
2009,10,27,04,08,2.20
2009,10,27,04,09,2.20
2009,10,27,04,10,2.10
2009,10,27,04,11,2.10
2009,10,27,04,12,2.10
2009,10,27,04,13,2.10
2009,10,27,04,14,2.00
2009,10,27,04,15,2.00
2009,10,27,04,16,2.00
2009,10,27,04,17,2.00
2009,10,27,04,18,1.90
2009,10,27,04,19,1.90
2009,10,27,04,20,1.90
2009,10,27,04,21,1.90
2009,10,27,04,22,1.90
2009,10,27,04,23,1.80
2009,10,27,04,24,1.80
2009,10,27,04,25,1.80
2009,10,27,04,26,1.70
2009,10,27,04,27,1.70
2009,10,27,04,28,1.70
2009,10,27,04,29,1.60
2009,10,27,04,30,1.60
2009,10,27,04,31,1.50
2009,10,27,04,32,1.50
2009,10,27,04,33,1.40
2009,10,27,04,34,1.40
2009,10,27,04,35,1.40
2009,10,27,04,36,1.40
2009,10,27,04,37,1.40
2009,10,27,04,38,1.40
2009,10,27,04,39,1.40
2009,10,27,04,40,1.40
2009,10,27,04,41,1.40
2009,10,27,04,42,1.40
2009,10,27,04,43,1.40
2009,10,27,04,44,1.30
2009,10,27,04,45,1.30
2009,10,27,04,46,1.30
2009,10,27,04,47,1.30
2009,10,27,04,48,1.30
2009,10,27,04,49,1.30
2009,10,27,04,50,1.30
2009,10,27,04,51,1.30
2009,10,27,04,52,1.30
2009,10,27,04,53,1.30
2009,10,27,04,54,1.30
2009,10,27,04,55,1.30
2009,10,27,04,56,1.30
2009,10,27,04,57,1.30
2009,10,27,04,58,1.30
2009,10,27,04,59,1.30
2009,10,27,05,00,1.30
2009,10,27,05,01,1.30
2009,10,27,05,02,1.30
2009,10,27,05,03,1.30
2009,10,27,05,04,1.30
2009,10,27,05,05,1.30
2009,10,27,05,06,1.30
2009,10,27,05,07,1.30
2009,10,27,05,08,1.30
2009,10,27,05,09,1.30
2009,10,27,05,10,1.30
2009,10,27,05,11,1.30
2009,10,27,05,12,1.30
2009,10,27,05,13,1.30
2009,10,27,05,14,1.30
2009,10,27,05,15,1.30
2009,10,27,05,16,1.30
2009,10,27,05,17,1.30
2009,10,27,05,18,1.20
2009,10,27,05,19,1.20
2009,10,27,05,20,1.20
2009,10,27,05,21,1.20
2009,10,27,05,22,1.20
2009,10,27,05,23,1.20
2009,10,27,05,24,1.10
2009,10,27,05,25,1.10
2009,10,27,05,26,1.10
2009,10,27,05,27,1.10
2009,10,27,05,28,1.10
2009,10,27,05,29,1.10
2009,10,27,05,30,1.10
2009,10,27,05,31,1.10
2009,10,27,05,32,1.00
2009,10,27,05,33,1.00
2009,10,27,05,34,1.00
2009,10,27,05,35,1.00
2009,10,27,05,36,1.00
2009,10,27,05,37,0.90
2009,10,27,05,38,1.00
2009,10,27,05,39,0.90
2009,10,27,05,40,0.90
2009,10,27,05,41,0.90
2009,10,27,05,42,0.90
2009,10,27,05,43,0.90
2009,10,27,05,44,0.90
2009,10,27,05,45,0.90
2009,10,27,05,46,0.90
2009,10,27,05,47,0.80
2009,10,27,05,48,0.80
2009,10,27,05,49,0.80
2009,10,27,05,50,0.80
2009,10,27,05,51,0.80
2009,10,27,05,52,0.80
2009,10,27,05,53,0.80
2009,10,27,05,54,0.70
2009,10,27,05,55,0.70
2009,10,27,05,56,0.70
2009,10,27,05,57,0.60
2009,10,27,05,58,0.60
2009,10,27,05,59,0.60
2009,10,27,06,00,0.50
2009,10,27,06,01,0.50
2009,10,27,06,02,0.50
2009,10,27,06,03,0.50
2009,10,27,06,04,0.40
2009,10,27,06,05,0.50
2009,10,27,06,06,0.40
2009,10,27,06,07,0.40
2009,10,27,06,08,0.40
2009,10,27,06,09,0.40
2009,10,27,06,10,0.40
2009,10,27,06,11,0.40
2009,10,27,06,12,0.40
2009,10,27,06,13,0.40
2009,10,27,06,14,0.40
2009,10,27,06,15,0.30
2009,10,27,06,16,0.30
2009,10,27,06,17,0.30
2009,10,27,06,18,0.30
2009,10,27,06,19,0.30
2009,10,27,06,20,0.30
2009,10,27,06,21,0.30
2009,10,27,06,22,0.30
2009,10,27,06,23,0.30
2009,10,27,06,24,0.30
2009,10,27,06,25,0.30
2009,10,27,06,26,0.30
2009,10,27,06,27,0.30
2009,10,27,06,28,0.30
2009,10,27,06,29,0.30
2009,10,27,06,30,0.30
2009,10,27,06,31,0.30
2009,10,27,06,32,0.30
2009,10,27,06,33,0.30
2009,10,27,06,34,0.30
2009,10,27,06,35,0.30
2009,10,27,06,36,0.30
2009,10,27,06,37,0.40
2009,10,27,06,38,0.40
2009,10,27,06,39,0.40
2009,10,27,06,40,0.40
2009,10,27,06,41,0.40
2009,10,27,06,42,0.40
2009,10,27,06,43,0.40
2009,10,27,06,44,0.40
2009,10,27,06,45,0.40
2009,10,27,06,46,0.40
2009,10,27,06,47,0.40
2009,10,27,06,48,0.40
2009,10,27,06,49,0.40
2009,10,27,06,50,0.40
2009,10,27,06,51,0.40
2009,10,27,06,52,0.40
2009,10,27,06,53,0.40
2009,10,27,06,54,0.50
2009,10,27,06,55,0.50
2009,10,27,06,56,0.50
2009,10,27,06,57,0.50
2009,10,27,06,58,0.50
2009,10,27,06,59,0.50
2009,10,27,07,00,0.60
2009,10,27,07,01,0.60
2009,10,27,07,02,0.70
2009,10,27,07,03,0.60
2009,10,27,07,04,0.60
2009,10,27,07,05,0.60
2009,10,27,07,06,0.60
2009,10,27,07,07,0.60
2009,10,27,07,08,0.60
2009,10,27,07,09,0.50
2009,10,27,07,10,0.50
2009,10,27,07,11,0.50
2009,10,27,07,12,0.50
2009,10,27,07,13,0.50
2009,10,27,07,14,0.40
2009,10,27,07,15,0.40
2009,10,27,07,16,0.40
2009,10,27,07,17,0.50
2009,10,27,07,18,0.50
2009,10,27,07,19,0.50
2009,10,27,07,20,0.60
2009,10,27,07,21,0.60
2009,10,27,07,22,0.70
2009,10,27,07,23,0.70
2009,10,27,07,24,0.70
2009,10,27,07,25,0.70
2009,10,27,07,26,0.70
2009,10,27,07,27,0.80
2009,10,27,07,28,0.80
2009,10,27,07,29,0.80
2009,10,27,07,30,0.80
2009,10,27,07,31,0.80
2009,10,27,07,32,0.80
2009,10,27,07,33,0.90
2009,10,27,07,34,0.90
2009,10,27,07,35,1.00
2009,10,27,07,36,1.10
2009,10,27,07,37,1.10
2009,10,27,07,38,1.20
2009,10,27,07,39,1.30
2009,10,27,07,40,1.30
2009,10,27,07,41,1.30
2009,10,27,07,42,1.30
2009,10,27,07,43,1.30
2009,10,27,07,44,1.30
2009,10,27,07,45,1.20
2009,10,27,07,46,1.20
2009,10,27,07,47,1.20
2009,10,27,07,48,1.10
2009,10,27,07,49,1.10
2009,10,27,07,50,1.10
2009,10,27,07,51,1.10
2009,10,27,07,52,1.10
2009,10,27,07,53,1.00
2009,10,27,07,54,1.10
2009,10,27,07,55,1.10
2009,10,27,07,56,1.30
2009,10,27,07,57,1.30
2009,10,27,07,58,1.40
2009,10,27,07,59,1.60
2009,10,27,08,00,1.70
2009,10,27,08,01,1.80
2009,10,27,08,02,1.80
2009,10,27,08,03,1.90
2009,10,27,08,04,2.00
2009,10,27,08,05,2.00
2009,10,27,08,06,2.10
2009,10,27,08,07,2.20
2009,10,27,08,08,2.20
2009,10,27,08,09,2.20
2009,10,27,08,10,2.30
2009,10,27,08,11,2.30
2009,10,27,08,12,2.30
2009,10,27,08,13,2.30
2009,10,27,08,14,2.40
2009,10,27,08,15,2.40
2009,10,27,08,16,2.40
2009,10,27,08,17,2.40
2009,10,27,08,18,2.50
2009,10,27,08,19,2.50
2009,10,27,08,20,2.60
2009,10,27,08,21,2.60
2009,10,27,08,22,2.60
2009,10,27,08,23,2.70
2009,10,27,08,24,2.70
2009,10,27,08,25,2.70
2009,10,27,08,26,2.70
2009,10,27,08,27,2.70
2009,10,27,08,28,2.70
2009,10,27,08,29,2.70
2009,10,27,08,30,2.70
2009,10,27,08,31,2.70
2009,10,27,08,32,2.70
2009,10,27,08,33,2.80
2009,10,27,08,34,2.80
2009,10,27,08,35,2.80
2009,10,27,08,36,2.80
2009,10,27,08,37,2.80
2009,10,27,08,38,2.80
2009,10,27,08,39,2.80
2009,10,27,08,40,2.80
2009,10,27,08,41,2.80
2009,10,27,08,42,2.80
2009,10,27,08,43,2.80
2009,10,27,08,44,2.80
2009,10,27,08,45,2.80
2009,10,27,08,46,2.80
2009,10,27,08,47,2.90
2009,10,27,08,48,2.90
2009,10,27,08,49,2.90
2009,10,27,08,50,2.90
2009,10,27,08,51,2.90
2009,10,27,08,52,2.90
2009,10,27,08,53,2.90
2009,10,27,08,54,2.90
2009,10,27,08,55,2.90
2009,10,27,08,56,2.90
2009,10,27,08,57,3.00
2009,10,27,08,58,3.00
2009,10,27,08,59,3.10
2009,10,27,09,00,3.10
2009,10,27,09,01,3.20
2009,10,27,09,02,3.20
2009,10,27,09,03,3.20
2009,10,27,09,04,3.20
2009,10,27,09,05,3.30
2009,10,27,09,06,3.30
2009,10,27,09,07,3.30
2009,10,27,09,08,3.40
2009,10,27,09,09,3.40
2009,10,27,09,10,3.50
2009,10,27,09,11,3.50
2009,10,27,09,12,3.60
2009,10,27,09,13,3.60
2009,10,27,09,14,3.60
2009,10,27,09,15,3.70
2009,10,27,09,16,3.70
2009,10,27,09,17,3.70
2009,10,27,09,18,3.70
2009,10,27,09,19,3.70
2009,10,27,09,20,3.80
2009,10,27,09,21,3.80
2009,10,27,09,22,3.80
2009,10,27,09,23,3.90
2009,10,27,09,24,3.90
2009,10,27,09,25,3.90
2009,10,27,09,26,3.90
2009,10,27,09,27,3.90
2009,10,27,09,28,4.00
2009,10,27,09,29,4.00
2009,10,27,09,30,4.10
2009,10,27,09,31,4.10
2009,10,27,09,32,4.10
2009,10,27,09,33,4.20
2009,10,27,09,34,4.20
2009,10,27,09,35,4.30
2009,10,27,09,36,4.30
2009,10,27,09,37,4.40
2009,10,27,09,38,4.40
2009,10,27,09,39,4.50
2009,10,27,09,40,4.50
2009,10,27,09,41,4.60
2009,10,27,09,42,4.70
2009,10,27,09,43,4.70
2009,10,27,09,44,4.80
2009,10,27,09,45,4.90
2009,10,27,09,46,4.90
2009,10,27,09,47,4.90
2009,10,27,09,48,5.00
2009,10,27,09,49,5.00
2009,10,27,09,50,5.10
2009,10,27,09,51,5.10
2009,10,27,09,52,5.20
2009,10,27,09,53,5.20
2009,10,27,09,54,5.30
2009,10,27,09,55,5.30
2009,10,27,09,56,5.30
2009,10,27,09,57,5.40
2009,10,27,09,58,5.40
2009,10,27,09,59,5.40
2009,10,27,10,00,5.50
2009,10,27,10,01,5.50
2009,10,27,10,02,5.60
2009,10,27,10,03,5.60
2009,10,27,10,04,5.70
2009,10,27,10,05,5.70
2009,10,27,10,06,5.80
2009,10,27,10,07,5.80
2009,10,27,10,08,5.90
2009,10,27,10,09,5.90
2009,10,27,10,10,6.00
2009,10,27,10,11,6.00
2009,10,27,10,12,6.00
2009,10,27,10,13,6.10
2009,10,27,10,14,6.10
2009,10,27,10,15,6.10
2009,10,27,10,16,6.20
2009,10,27,10,17,6.20
2009,10,27,10,18,6.30
2009,10,27,10,19,6.30
2009,10,27,10,20,6.30
2009,10,27,10,21,6.30
2009,10,27,10,22,6.40
2009,10,27,10,23,6.40
2009,10,27,10,24,6.50
2009,10,27,10,25,6.60
2009,10,27,10,26,6.60
2009,10,27,10,27,6.60
2009,10,27,10,28,6.60
2009,10,27,10,29,6.60
2009,10,27,10,30,6.70
2009,10,27,10,31,6.70
2009,10,27,10,32,6.70
2009,10,27,10,33,6.70
2009,10,27,10,34,6.70
2009,10,27,10,35,6.70
2009,10,27,10,36,6.70
2009,10,27,10,37,6.80
2009,10,27,10,38,6.80
2009,10,27,10,39,6.80
2009,10,27,10,40,6.90
2009,10,27,10,41,6.90
2009,10,27,10,42,7.00
2009,10,27,10,43,7.00
2009,10,27,10,44,7.10
2009,10,27,10,45,7.20
2009,10,27,10,46,7.20
2009,10,27,10,47,7.30
2009,10,27,10,48,7.30
2009,10,27,10,49,7.40
2009,10,27,10,50,7.40
2009,10,27,10,51,7.40
2009,10,27,10,52,7.50
2009,10,27,10,53,7.50
2009,10,27,10,54,7.60
2009,10,27,10,55,7.50
2009,10,27,10,56,7.40
2009,10,27,10,57,7.40
2009,10,27,10,58,7.50
2009,10,27,10,59,7.50
2009,10,27,11,00,7.50
2009,10,27,11,01,7.50
2009,10,27,11,02,7.60
2009,10,27,11,03,7.60
2009,10,27,11,04,7.70
2009,10,27,11,05,7.70
2009,10,27,11,06,7.70
2009,10,27,11,07,7.80
2009,10,27,11,08,7.80
2009,10,27,11,09,7.90
2009,10,27,11,10,7.90
2009,10,27,11,11,8.00
2009,10,27,11,12,8.10
2009,10,27,11,13,8.10
2009,10,27,11,14,8.20
2009,10,27,11,15,8.20
2009,10,27,11,16,8.30
2009,10,27,11,17,8.40
2009,10,27,11,18,8.40
2009,10,27,11,19,8.50
2009,10,27,11,20,8.60
2009,10,27,11,21,8.70
2009,10,27,11,22,8.80
2009,10,27,11,23,8.90
2009,10,27,11,24,9.00
2009,10,27,11,25,9.00
2009,10,27,11,26,9.10
2009,10,27,11,27,9.10
2009,10,27,11,28,9.20
2009,10,27,11,29,9.20
2009,10,27,11,30,9.20
2009,10,27,11,31,9.30
2009,10,27,11,32,9.30
2009,10,27,11,33,9.40
2009,10,27,11,34,9.40
2009,10,27,11,35,9.50
2009,10,27,11,36,9.50
2009,10,27,11,37,9.60
2009,10,27,11,38,9.70
2009,10,27,11,39,9.70
2009,10,27,11,40,9.80
2009,10,27,11,41,9.80
2009,10,27,11,42,9.90
2009,10,27,11,43,9.90
2009,10,27,11,44,9.90
2009,10,27,11,45,9.90
2009,10,27,11,46,9.90
2009,10,27,11,47,10.00
2009,10,27,11,48,10.00
2009,10,27,11,49,10.10
2009,10,27,11,50,10.10
2009,10,27,11,51,10.10
2009,10,27,11,52,10.10
2009,10,27,11,53,10.10
2009,10,27,11,54,10.10
2009,10,27,11,55,10.10
2009,10,27,11,56,10.10
2009,10,27,11,57,10.10
2009,10,27,11,58,10.10
2009,10,27,11,59,10.20
2009,10,27,12,00,10.20
2009,10,27,12,01,10.30
2009,10,27,12,02,10.30
2009,10,27,12,03,10.30
2009,10,27,12,04,10.20
2009,10,27,12,05,10.20
2009,10,27,12,06,10.20
2009,10,27,12,07,10.20
2009,10,27,12,08,10.30
2009,10,27,12,09,10.40
2009,10,27,12,10,10.40
2009,10,27,12,11,10.50
2009,10,27,12,12,10.60
2009,10,27,12,13,10.60
2009,10,27,12,14,10.70
2009,10,27,12,15,10.80
2009,10,27,12,16,10.90
2009,10,27,12,17,10.90
2009,10,27,12,18,10.90
2009,10,27,12,19,10.90
2009,10,27,12,20,10.90
2009,10,27,12,21,10.80
2009,10,27,12,22,10.80
2009,10,27,12,23,10.80
2009,10,27,12,24,10.80
2009,10,27,12,25,10.90
2009,10,27,12,26,10.90
2009,10,27,12,27,11.00
2009,10,27,12,28,11.00
2009,10,27,12,29,11.10
2009,10,27,12,30,11.10
2009,10,27,12,31,11.10
2009,10,27,12,32,11.10
2009,10,27,12,33,11.10
2009,10,27,12,34,11.10
2009,10,27,12,35,11.20
2009,10,27,12,36,11.20
2009,10,27,12,37,11.30
2009,10,27,12,38,11.30
2009,10,27,12,39,11.30
2009,10,27,12,40,11.30
2009,10,27,12,41,11.30
2009,10,27,12,42,11.30
2009,10,27,12,43,11.30
2009,10,27,12,44,11.40
2009,10,27,12,45,11.40
2009,10,27,12,46,11.40
2009,10,27,12,47,11.40
2009,10,27,12,48,11.40
2009,10,27,12,49,11.50
2009,10,27,12,50,11.60
2009,10,27,12,51,11.70
2009,10,27,12,52,11.80
2009,10,27,12,53,11.80
2009,10,27,12,54,11.80
2009,10,27,12,55,11.80
2009,10,27,12,56,11.90
2009,10,27,12,57,11.90
2009,10,27,12,58,11.90
2009,10,27,12,59,11.90
2009,10,27,13,00,12.00
2009,10,27,13,01,12.00
2009,10,27,13,02,12.00
2009,10,27,13,03,12.00
2009,10,27,13,04,11.90
2009,10,27,13,05,11.80
2009,10,27,13,06,11.70
2009,10,27,13,07,11.60
2009,10,27,13,08,11.60
2009,10,27,13,09,11.50
2009,10,27,13,10,11.40
2009,10,27,13,11,11.30
2009,10,27,13,12,11.30
2009,10,27,13,13,11.30
2009,10,27,13,14,11.30
2009,10,27,13,15,11.30
2009,10,27,13,16,11.30
2009,10,27,13,17,11.40
2009,10,27,13,18,11.40
2009,10,27,13,19,11.50
2009,10,27,13,20,11.60
2009,10,27,13,21,11.60
2009,10,27,13,22,11.70
2009,10,27,13,23,11.70
2009,10,27,13,24,11.80
2009,10,27,13,25,11.80
2009,10,27,13,26,11.90
2009,10,27,13,27,11.90
2009,10,27,13,28,11.90
2009,10,27,13,29,12.00
2009,10,27,13,30,12.00
2009,10,27,13,31,12.10
2009,10,27,13,32,12.10
2009,10,27,13,33,12.10
2009,10,27,13,34,12.10
2009,10,27,13,35,12.10
2009,10,27,13,36,12.10
2009,10,27,13,37,12.10
2009,10,27,13,38,12.10
2009,10,27,13,39,12.20
2009,10,27,13,40,12.20
2009,10,27,13,41,12.20
2009,10,27,13,42,12.20
2009,10,27,13,43,12.20
2009,10,27,13,44,12.30
2009,10,27,13,45,12.40
2009,10,27,13,46,12.50
2009,10,27,13,47,12.50
2009,10,27,13,48,12.60
2009,10,27,13,49,12.70
2009,10,27,13,50,12.80
2009,10,27,13,51,12.80
2009,10,27,13,52,12.70
2009,10,27,13,53,12.70
2009,10,27,13,54,12.70
2009,10,27,13,55,12.70
2009,10,27,13,56,12.70
2009,10,27,13,57,12.70
2009,10,27,13,58,12.70
2009,10,27,13,59,12.60
2009,10,27,14,00,12.60
2009,10,27,14,01,12.60
2009,10,27,14,02,12.60
2009,10,27,14,03,12.60
2009,10,27,14,04,12.60
2009,10,27,14,05,12.70
2009,10,27,14,06,12.70
2009,10,27,14,07,12.80
2009,10,27,14,08,12.70
2009,10,27,14,09,12.70
2009,10,27,14,10,12.70
2009,10,27,14,11,12.60
2009,10,27,14,12,12.60
2009,10,27,14,13,12.60
2009,10,27,14,14,12.60
2009,10,27,14,15,12.60
2009,10,27,14,16,12.60
2009,10,27,14,17,12.60
2009,10,27,14,18,12.60
2009,10,27,14,19,12.50
2009,10,27,14,20,12.50
2009,10,27,14,21,12.50
2009,10,27,14,22,12.40
2009,10,27,14,23,12.40
2009,10,27,14,24,12.40
2009,10,27,14,25,12.30
2009,10,27,14,26,12.30
2009,10,27,14,27,12.20
2009,10,27,14,28,12.20
2009,10,27,14,29,12.10
2009,10,27,14,30,12.10
2009,10,27,14,31,12.00
2009,10,27,14,32,12.00
2009,10,27,14,33,11.90
2009,10,27,14,34,11.90
2009,10,27,14,35,11.80
2009,10,27,14,36,11.80
2009,10,27,14,37,11.80
2009,10,27,14,38,11.90
2009,10,27,14,39,11.90
2009,10,27,14,40,11.90
2009,10,27,14,41,11.90
2009,10,27,14,42,12.00
2009,10,27,14,43,11.90
2009,10,27,14,44,11.90
2009,10,27,14,45,12.00
2009,10,27,14,46,11.90
2009,10,27,14,47,12.00
2009,10,27,14,48,12.00
2009,10,27,14,49,12.10
2009,10,27,14,50,12.10
2009,10,27,14,51,12.20
2009,10,27,14,52,12.20
2009,10,27,14,53,12.30
2009,10,27,14,54,12.30
2009,10,27,14,55,12.20
2009,10,27,14,56,12.10
2009,10,27,14,57,12.10
2009,10,27,14,58,12.00
2009,10,27,14,59,12.00
2009,10,27,15,00,11.90
2009,10,27,15,01,11.90
2009,10,27,15,02,11.80
2009,10,27,15,03,11.70
2009,10,27,15,04,11.70
2009,10,27,15,05,11.60
2009,10,27,15,06,11.60
2009,10,27,15,07,11.50
2009,10,27,15,08,11.50
2009,10,27,15,09,11.40
2009,10,27,15,10,11.40
2009,10,27,15,11,11.40
2009,10,27,15,12,11.40
2009,10,27,15,13,11.40
2009,10,27,15,14,11.30
2009,10,27,15,15,11.30
2009,10,27,15,16,11.30
2009,10,27,15,17,11.30
2009,10,27,15,18,11.30
2009,10,27,15,19,11.30
2009,10,27,15,20,11.30
2009,10,27,15,21,11.30
2009,10,27,15,22,11.30
2009,10,27,15,23,11.20
2009,10,27,15,24,11.20
2009,10,27,15,25,11.20
2009,10,27,15,26,11.20
2009,10,27,15,27,11.20
2009,10,27,15,28,11.30
2009,10,27,15,29,11.30
2009,10,27,15,30,11.30
2009,10,27,15,31,11.30
2009,10,27,15,32,11.30
2009,10,27,15,33,11.30
2009,10,27,15,34,11.30
2009,10,27,15,35,11.30
2009,10,27,15,36,11.30
2009,10,27,15,37,11.30
2009,10,27,15,38,11.40
2009,10,27,15,39,11.40
2009,10,27,15,40,11.50
2009,10,27,15,41,11.50
2009,10,27,15,42,11.60
2009,10,27,15,43,11.60
2009,10,27,15,44,11.70
2009,10,27,15,45,11.70
2009,10,27,15,46,11.70
2009,10,27,15,47,11.70
2009,10,27,15,48,11.70
2009,10,27,15,49,11.60
2009,10,27,15,50,11.60
2009,10,27,15,51,11.60
2009,10,27,15,52,11.50
2009,10,27,15,53,11.40
2009,10,27,15,54,11.40
2009,10,27,15,55,11.40
2009,10,27,15,56,11.40
2009,10,27,15,57,11.40
2009,10,27,15,58,11.40
2009,10,27,15,59,11.40
2009,10,27,16,00,11.40
2009,10,27,16,01,11.40
2009,10,27,16,02,11.40
2009,10,27,16,03,11.50
2009,10,27,16,04,11.50
2009,10,27,16,05,11.50
2009,10,27,16,06,11.50
2009,10,27,16,07,11.40
2009,10,27,16,08,11.40
2009,10,27,16,09,11.40
2009,10,27,16,10,11.30
2009,10,27,16,11,11.30
2009,10,27,16,12,11.30
2009,10,27,16,13,11.30
2009,10,27,16,14,11.30
2009,10,27,16,15,11.30
2009,10,27,16,16,11.30
2009,10,27,16,17,11.30
2009,10,27,16,18,11.30
2009,10,27,16,19,11.30
2009,10,27,16,20,11.30
2009,10,27,16,21,11.40
2009,10,27,16,22,11.40
2009,10,27,16,23,11.50
2009,10,27,16,24,11.50
2009,10,27,16,25,11.60
2009,10,27,16,26,11.60
2009,10,27,16,27,11.70
2009,10,27,16,28,11.70
2009,10,27,16,29,11.70
2009,10,27,16,30,11.70
2009,10,27,16,31,11.70
2009,10,27,16,32,11.60
2009,10,27,16,33,11.60
2009,10,27,16,34,11.60
2009,10,27,16,35,11.60
2009,10,27,16,36,11.60
2009,10,27,16,37,11.60
2009,10,27,16,38,11.50
2009,10,27,16,39,11.50
2009,10,27,16,40,11.40
2009,10,27,16,41,11.40
2009,10,27,16,42,11.40
2009,10,27,16,43,11.30
2009,10,27,16,44,11.30
2009,10,27,16,45,11.30
2009,10,27,16,46,11.30
2009,10,27,16,47,11.20
2009,10,27,16,48,11.20
2009,10,27,16,49,11.10
2009,10,27,16,50,11.10
2009,10,27,16,51,11.00
2009,10,27,16,52,11.00
2009,10,27,16,53,10.90
2009,10,27,16,54,10.90
2009,10,27,16,55,10.90
2009,10,27,16,56,10.80
2009,10,27,16,57,10.80
2009,10,27,16,58,10.80
2009,10,27,16,59,10.80
2009,10,27,17,00,10.80
2009,10,27,17,01,10.80
2009,10,27,17,02,10.80
2009,10,27,17,03,10.70
2009,10,27,17,04,10.70
2009,10,27,17,05,10.70
2009,10,27,17,06,10.70
2009,10,27,17,07,10.70
2009,10,27,17,08,10.70
2009,10,27,17,09,10.60
2009,10,27,17,10,10.60
2009,10,27,17,11,10.60
2009,10,27,17,12,10.60
2009,10,27,17,13,10.60
2009,10,27,17,14,10.60
2009,10,27,17,15,10.60
2009,10,27,17,16,10.60
2009,10,27,17,17,10.60
2009,10,27,17,18,10.50
2009,10,27,17,19,10.50
2009,10,27,17,20,10.50
2009,10,27,17,21,10.40
2009,10,27,17,22,10.40
2009,10,27,17,23,10.40
2009,10,27,17,24,10.30
2009,10,27,17,25,10.30
2009,10,27,17,26,10.30
2009,10,27,17,27,10.30
2009,10,27,17,28,10.20
2009,10,27,17,29,10.20
2009,10,27,17,30,10.10
2009,10,27,17,31,10.10
2009,10,27,17,32,10.10
2009,10,27,17,33,10.00
2009,10,27,17,34,9.90
2009,10,27,17,35,9.90
2009,10,27,17,36,9.80
2009,10,27,17,37,9.70
2009,10,27,17,38,9.60
2009,10,27,17,39,9.60
2009,10,27,17,40,9.50
2009,10,27,17,41,9.40
2009,10,27,17,42,9.30
2009,10,27,17,43,9.30
2009,10,27,17,44,9.20
2009,10,27,17,45,9.10
2009,10,27,17,46,9.00
2009,10,27,17,47,8.90
2009,10,27,17,48,8.80
2009,10,27,17,49,8.70
2009,10,27,17,50,8.70
2009,10,27,17,51,8.60